Wind_Speed
20 19 19 20 20 21 23 21 18 16 17 18 17 16 14 11 10 9 8 8 9 10 10 11 12 14 14 14 13 14 14 15 15 18 18 18 10 9 7 10 12 14 13
20 23 21 20 21 20 21 23 21 19 18 18 18 16 13 13 12 10 11 12 11 11 13 13 13 13 14 14 14 13 15 17 16 17 16 10 11 1 16 5 7 8 10
22 22 25 25 20 20 19 21 22 20 19 18 17 16 16 16 15 13 12 11 12 12 13 14 15 15 15 16 15 16 16 18 19 16 13 8 5 15 7 13 3 4 9
25 25 25 26 25 21 16 19 22 22 21 19 18 17 13 12 10 13 14 13 14 14 14 14 14 14 15 16 16 17 17 17 17 17 16 14 15 8 11 9 11 12 9
24 26 28 28 26 24 19 18 20 22 22 20 19 17 16 14 12 12 15 15 14 15 14 14 15 17 18 18 18 19 19 19 19 18 17 17 17 17 17 18 13 16 14
24 26 24 22 23 27 24 21 18 18 22 22 21 18 16 15 15 13 13 14 15 15 16 17 18 21 21 23 24 25 26 24 23 23 20 18 16 16 19 22 23 18 17
22 23 25 24 20 17 23 22 21 20 20 24 23 22 20 17 15 15 16 15 17 18 18 18 19 22 20 21 25 27 27 26 28 28 25 22 20 19 21 23 21 20 15
13 20 23 27 25 20 14 21 23 22 20 22 22 23 21 20 14 12 17 20 20 20 21 23 23 23 22 23 22 25 27 27 28 26 22 25 22 20 19 22 22 20 16
6 10 15 24 28 29 26 21 22 22 18 24 26 27 24 24 25 20 16 21 21 25 26 26 27 25 24 25 26 25 27 27 32 23 22 22 23 19 18 19 21 20 17
7 9 13 15 19 19 26 28 23 23 29 23 24 28 27 28 25 23 17 17 19 17 18 21 23 26 25 24 26 25 21 26 29 28 26 21 20 18 17 19 20 22 22
2 4 8 14 16 15 17 22 23 24 29 26 29 25 18 22 26 20 19 19 21 19 15 13 14 17 19 18 18 13 17 17 11 6 7 12 15 17 17 18 19 22 21
4 7 8 7 8 13 16 19 20 21 27 24 24 20 23 22 22 25 20 17 17 14 14 14 14 14 12 11 12 12 13 10 8 7 7 7 11 16 13 16 20 20 20
7 10 13 13 11 12 12 14 15 16 23 21 18 13 7 9 14 15 19 21 14 14 16 17 17 17 13 13 14 13 13 15 12 13 12 16 15 11 15 17 17 18 18
9 8 11 13 14 13 12 12 13 14 13 16 12 9 7 9 13 17 16 14 14 18 19 18 18 18 16 16 16 16 14 17 19 18 18 19 22 22 21 22 22 23 23
14 11 11 11 12 12 13 14 12 15 14 13 13 10 10 14 13 14 13 13 15 17 17 16 17 19 18 18 18 18 18 19 21 23 22 22 19 18 20 23 23 20 22
20 16 14 12 11 10 9 8 7 8 10 9 8 7 7 8 10 11 11 12 14 16 18 16 18 19 19 17 16 17 19 20 22 21 20 17 11 20 22 20 20 19 19
25 22 18 14 11 8 7 6 6 7 8 7 5 6 6 7 9 10 12 14 16 17 18 19 19 21 19 21 21 19 21 20 20 18 15 11 11 13 13 13 14 15 16
27 24 20 17 13 10 8 8 7 7 6 5 5 5 6 7 9 10 12 14 15 15 16 16 17 19 18 18 19 20 21 24 22 20 16 15 9 9 11 10 10 12 13
27 23 21 18 15 14 11 8 8 8 7 7 7 7 9 11 13 14 16 17 17 17 18 19 20 21 21 20 20 20 23 24 23 20 20 20 18 14 15 16 14 13 12
27 23 20 17 15 13 12 10 8 7 6 6 7 8 9 11 14 16 18 20 22 23 23 24 24 25 26 26 25 25 24 26 27 24 23 23 24 19 18 21 21 22 16
23 23 18 15 12 12 12 12 12 10 8 8 7 10 13 16 18 20 22 23 23 25 26 27 29 30 30 30 29 27 28 28 29 30 29 29 28 25 23 23 24 23 18
23 21 17 14 13 13 12 11 11 8 6 7 12 16 18 19 20 22 24 27 28 27 27 29 29 28 29 28 28 29 29 28 29 32 31 31 33 29 27 27 26 25 23
22 18 16 14 13 14 13 11 8 7 8 11 16 19 20 22 25 28 30 31 30 29 28 24 25 24 24 27 29 26 25 26 28 30 32 32 33 35 34 31 29 28 28
18 16 15 17 17 18 15 13 10 9 10 16 21 22 25 27 30 32 33 32 29 24 23 25 26 26 24 24 25 25 25 24 26 24 24 30 31 33 34 34 33 30 31
14 16 18 16 15 14 14 13 12 12 14 18 22 25 28 33 34 31 29 29 28 26 24 24 24 26 27 27 30 32 32 30 29 33 31 28 26 26 30 32 33 33 30
12 17 16 19 19 15 17 16 15 15 20 23 25 28 29 29 28 27 27 27 27 26 27 27 27 31 33 32 32 32 32 30 28 32 30 29 28 27 27 27 25 25 32
Wind_Direction
236 242 246 244 244 242 236 230 223 221 219 217 216 221 227 231 240 252 250 255 253 264 278 285 281 278 278 284 287 294 297 303 309 309 313 321 341 321 329 298 272 264 263
235 243 245 243 244 250 242 233 234 230 228 232 234 236 242 241 242 251 254 252 255 263 272 280 288 288 290 293 285 288 293 300 306 308 314 326 328 41 331 315 319 295 269
229 233 237 240 247 248 240 232 232 236 236 237 241 242 243 242 244 245 253 261 252 261 275 282 288 294 294 292 292 298 301 301 300 305 302 314 310 323 319 319 338 325 316
232 233 234 239 241 244 242 233 233 235 236 236 238 242 249 257 278 279 263 266 265 267 273 279 284 291 295 298 297 296 296 295 294 295 296 293 293 298 309 307 295 308 307
229 232 236 237 244 248 241 231 228 231 236 238 240 245 251 259 269 276 270 265 265 263 270 278 284 285 283 288 291 290 291 288 284 282 286 289 289 291 280 295 303 306 308
230 239 241 242 242 240 235 230 230 234 238 239 242 243 250 254 260 267 271 265 261 255 264 277 287 284 283 285 287 288 287 284 281 279 277 275 276 284 286 289 297 298 309
234 240 240 240 228 221 227 229 226 228 237 238 241 246 251 251 253 257 262 266 266 263 267 275 280 287 293 297 288 288 292 290 289 283 278 277 277 282 283 286 288 288 301
231 237 242 242 240 237 231 226 229 231 237 242 244 247 246 251 258 272 271 274 275 271 269 273 277 281 285 294 298 289 288 285 293 286 282 278 279 281 281 285 287 289 293
246 251 246 248 246 241 237 239 228 225 248 249 249 246 249 251 255 267 274 283 288 284 277 276 277 280 281 288 290 292 293 292 292 277 285 278 272 274 281 289 285 283 286
263 273 270 252 250 238 235 231 227 224 212 265 254 254 252 253 259 269 280 293 295 296 291 280 282 279 280 285 293 302 306 304 293 265 270 264 264 269 278 287 285 282 283
293 291 261 247 233 226 225 227 222 223 230 244 265 276 252 256 252 282 287 286 288 296 288 295 297 292 288 289 297 305 310 322 343 269 260 274 271 272 276 280 280 282 281
87 92 99 118 177 202 212 221 223 226 234 243 271 278 264 267 267 275 282 280 276 283 289 294 300 299 293 291 294 297 308 297 328 312 309 293 287 275 272 278 281 271 277
112 112 117 126 140 157 183 204 211 218 227 241 248 248 247 254 263 272 282 269 259 270 279 280 284 286 284 287 286 294 289 287 281 290 286 285 296 288 293 289 272 272 272
150 135 133 147 155 164 177 195 207 210 228 245 253 238 246 269 281 281 273 257 263 266 273 279 281 278 282 279 279 278 286 288 289 287 287 287 285 289 291 281 261 271 267
183 178 162 158 164 175 188 197 204 226 244 242 246 256 270 285 287 289 274 264 272 269 276 283 280 275 281 280 277 268 276 281 282 284 291 295 300 300 294 277 269 263 264
192 186 182 178 177 184 200 222 229 234 223 224 223 234 246 269 282 284 281 276 275 275 279 283 278 274 275 273 273 268 273 279 283 282 282 285 279 301 301 285 268 269 261
194 192 184 186 196 202 200 204 192 180 178 187 206 227 255 275 284 291 292 291 288 283 278 274 268 271 273 273 271 273 278 282 289 283 269 257 293 312 312 298 275 266 261
199 194 187 187 186 186 187 188 195 187 193 200 216 243 257 271 283 291 295 297 295 292 286 280 279 281 281 277 280 280 276 282 288 283 260 256 280 310 293 292 278 272 275
202 197 192 192 193 195 199 204 195 197 209 225 246 267 278 289 295 297 300 300 298 294 289 286 283 281 283 285 283 280 282 288 290 277 264 247 268 282 273 271 275 278 263
204 198 193 195 202 205 205 211 221 224 228 243 257 270 283 293 298 298 297 293 290 288 286 283 281 280 281 282 283 283 283 284 286 284 272 260 265 273 268 269 270 273 259
202 199 197 202 210 214 218 221 220 221 232 241 262 290 302 306 309 311 311 307 299 293 289 287 286 284 282 283 283 281 279 277 276 276 277 273 268 267 265 260 262 264 266
180 189 195 198 202 206 208 203 205 206 229 281 301 301 302 306 309 309 308 306 304 301 298 296 293 292 291 288 285 283 279 277 274 272 270 271 273 268 261 256 255 258 256
172 175 180 187 196 206 198 206 215 250 283 304 312 306 302 303 303 304 304 304 301 298 299 297 295 295 294 296 295 290 289 284 278 276 274 271 271 271 266 260 253 250 251
169 179 195 204 209 206 206 218 239 267 305 315 305 300 298 299 300 301 302 300 297 296 296 296 296 295 294 293 292 293 293 291 290 289 281 273 271 269 267 264 261 253 248
188 200 203 207 211 220 231 246 256 274 289 291 291 293 297 300 300 300 299 298 297 298 297 297 295 293 293 292 294 294 289 286 283 283 282 278 273 269 267 264 260 257 252
206 206 214 219 207 221 246 253 267 281 285 286 290 296 299 299 301 303 303 300 298 296 294 293 292 295 294 295 295 294 291 290 285 282 277 271 269 266 261 260 259 257 257
Height
1565 1567 1569 1571 1574 1577 1580 1582 1584 1587 1588 1589 1590 1592 1593 1596 1598 1599 1601 1602 1602 1602 1603 1603 1602 1601 1602 1602 1601 1602 1601 1600 1600 1599 1597 1595 1593 1592 1592 1591 1591 1591 1592
1563 1564 1566 1568 1570 1572 1575 1579 1582 1585 1587 1588 1590 1591 1593 1594 1595 1597 1599 1600 1600 1600 1600 1600 1599 1599 1599 1599 1598 1598 1599 1598 1598 1597 1595 1594 1593 1591 1591 1590 1589 1588 1588
1558 1559 1561 1563 1566 1569 1571 1574 1578 1581 1585 1587 1588 1589 1590 1591 1592 1594 1596 1597 1598 1598 1598 1599 1598 1597 1597 1596 1596 1596 1596 1595 1594 1594 1594 1593 1592 1590 1588 1588 1587 1587 1586
1552 1554 1557 1559 1562 1565 1569 1572 1575 1578 1581 1584 1585 1587 1588 1589 1590 1592 1593 1595 1595 1596 1596 1596 1596 1595 1595 1594 1594 1593 1592 1592 1591 1590 1590 1590 1590 1589 1588 1586 1585 1585 1583
1545 1548 1551 1555 1558 1561 1564 1567 1570 1575 1578 1580 1582 1584 1585 1586 1587 1588 1590 1591 1592 1593 1594 1594 1593 1592 1591 1590 1590 1589 1589 1589 1588 1587 1586 1585 1585 1585 1585 1581 1582 1581 1580
1539 1541 1546 1549 1552 1555 1559 1564 1568 1572 1575 1578 1580 1580 1580 1583 1584 1585 1586 1587 1588 1589 1590 1590 1590 1588 1588 1587 1587 1585 1584 1583 1584 1583 1581 1581 1581 1581 1581 1579 1577 1576 1574
1535 1536 1540 1542 1546 1549 1555 1560 1564 1567 1571 1573 1575 1577 1579 1580 1579 1581 1582 1583 1584 1585 1586 1586 1585 1584 1584 1583 1582 1581 1579 1579 1578 1579 1577 1577 1576 1576 1576 1576 1574 1572 1571
1531 1533 1535 1537 1541 1545 1551 1556 1559 1563 1567 1568 1569 1572 1573 1576 1576 1576 1578 1580 1580 1580 1581 1581 1580 1579 1579 1578 1577 1576 1574 1573 1572 1571 1571 1571 1570 1571 1572 1571 1571 1569 1569
1529 1530 1532 1533 1537 1541 1546 1551 1554 1558 1560 1562 1564 1566 1569 1572 1573 1576 1574 1575 1575 1575 1575 1574 1574 1573 1573 1573 1571 1570 1569 1567 1565 1565 1565 1565 1565 1566 1567 1568 1568 1567 1565
1528 1528 1528 1529 1531 1535 1540 1545 1550 1553 1551 1554 1557 1561 1566 1566 1569 1570 1569 1569 1571 1570 1569 1568 1567 1567 1567 1567 1565 1564 1563 1559 1555 1555 1558 1559 1561 1561 1562 1563 1563 1562 1562
1526 1525 1524 1523 1527 1531 1535 1539 1545 1549 1552 1554 1553 1557 1561 1561 1564 1565 1565 1565 1566 1565 1564 1563 1562 1562 1561 1561 1560 1561 1559 1556 1550 1550 1553 1554 1557 1557 1557 1557 1557 1557 1557
1524 1523 1522 1522 1525 1528 1532 1536 1542 1546 1550 1552 1553 1554 1553 1558 1560 1560 1560 1559 1561 1560 1560 1559 1558 1558 1558 1556 1556 1557 1556 1554 1552 1551 1552 1550 1552 1553 1551 1551 1551 1552 1551
1524 1523 1523 1524 1526 1528 1532 1536 1540 1544 1548 1551 1551 1550 1551 1553 1554 1555 1555 1556 1555 1555 1556 1555 1554 1555 1554 1554 1553 1554 1553 1551 1550 1551 1550 1550 1549 1548 1546 1546 1545 1545 1545
1523 1524 1524 1525 1527 1530 1533 1536 1539 1542 1545 1546 1547 1549 1550 1551 1551 1550 1550 1551 1550 1551 1551 1550 1550 1551 1550 1549 1549 1549 1549 1547 1545 1545 1545 1544 1543 1541 1540 1539 1538 1538 1537
1523 1524 1524 1525 1527 1529 1531 1535 1537 1540 1541 1542 1544 1546 1546 1546 1546 1545 1545 1546 1546 1547 1546 1545 1545 1546 1544 1544 1544 1545 1544 1542 1541 1540 1539 1537 1535 1534 1533 1531 1530 1530 1530
1521 1523 1524 1526 1528 1529 1532 1534 1536 1537 1538 1539 1541 1542 1543 1543 1543 1543 1543 1543 1543 1542 1541 1541 1542 1541 1540 1540 1539 1538 1537 1536 1535 1534 1533 1532 1531 1529 1526 1524 1523 1524 1525
1517 1521 1524 1526 1528 1529 1531 1533 1534 1536 1537 1539 1540 1540 1541 1541 1541 1541 1541 1540 1538 1538 1537 1537 1537 1536 1535 1535 1535 1533 1531 1530 1530 1529 1528 1528 1527 1524 1522 1520 1519 1520 1520
1514 1518 1522 1525 1527 1529 1531 1532 1533 1534 1535 1536 1537 1538 1539 1539 1539 1538 1537 1536 1535 1534 1534 1533 1532 1531 1531 1531 1529 1528 1526 1524 1523 1523 1522 1523 1522 1521 1520 1518 1517 1517 1517
1511 1515 1520 1523 1526 1528 1531 1534 1535 1535 1536 1537 1538 1538 1537 1537 1536 1535 1533 1533 1531 1530 1529 1529 1528 1528 1527 1526 1524 1523 1521 1519 1518 1517 1517 1516 1516 1517 1516 1515 1514 1514 1514
1506 1512 1516 1521 1525 1528 1530 1534 1535 1537 1537 1537 1537 1537 1537 1537 1536 1534 1532 1530 1529 1527 1526 1525 1523 1522 1520 1519 1518 1516 1515 1513 1511 1510 1511 1511 1510 1511 1511 1510 1509 1508 1510
1503 1510 1514 1519 1523 1526 1528 1529 1529 1531 1533 1534 1535 1536 1535 1533 1532 1529 1527 1526 1523 1521 1518 1516 1515 1513 1513 1511 1510 1509 1507 1506 1504 1503 1502 1502 1503 1504 1504 1503 1503 1503 1504
1499 1507 1512 1517 1521 1524 1527 1528 1530 1530 1530 1531 1532 1531 1530 1527 1526 1524 1521 1518 1515 1513 1511 1508 1505 1504 1503 1501 1501 1499 1498 1497 1495 1494 1494 1493 1492 1493 1494 1494 1495 1496 1496
1499 1507 1512 1516 1520 1524 1526 1528 1529 1529 1529 1528 1527 1527 1526 1523 1519 1517 1514 1511 1509 1505 1503 1501 1498 1496 1494 1492 1491 1491 1489 1487 1486 1484 1483 1482 1482 1481 1482 1484 1485 1486 1486
1502 1507 1511 1514 1516 1520 1523 1525 1523 1525 1523 1523 1523 1520 1519 1517 1514 1511 1507 1503 1501 1498 1496 1494 1491 1489 1487 1484 1484 1482 1481 1479 1477 1475 1474 1472 1472 1471 1471 1472 1474 1475 1476
1501 1505 1508 1513 1517 1521 1522 1521 1524 1522 1519 1517 1517 1515 1511 1510 1506 1502 1499 1497 1494 1492 1489 1486 1484 1482 1479 1477 1476 1474 1472 1471 1470 1467 1465 1463 1463 1462 1461 1461 1462 1464 1465
1502 1503 1506 1508 1506 1510 1519 1521 1520 1516 1515 1512 1511 1508 1506 1503 1500 1495 1490 1489 1487 1486 1485 1481 1477 1475 1472 1468 1466 1464 1462 1460 1458 1455 1453 1453 1453 1453 1453 1454 1454 1454 1454